Starlink 35067

operational
NORAD ID: 65527 Int'l Des: 2025-200 Owner: SPXS Country: US Constellation: starlink
LEOCIRCULARRETROGRADE

Starlink 35067について

説明を読み込み中...

リアルタイム位置

3D地球を読み込み中...

次回通過

高度履歴

Altitude vs Time

uPlot chart will show altitude changes over time

軌道要素

1 65527U 25200H 25351.45137325 .00002742 00000-0 19414-3 0 9997
2 65527 97.6054 58.6891 0001704 90.3119 269.8303 15.05656542 16759
Epoch: Dec 17, 2025 • Age: 11 hours

現在のステータス

高度 574.7 km
速度 7.57 km/s
衛星直下点 -62.95°S, 21.72°E
打ち上げ日 Sep 6, 2025
運用期間 0.2 years
タイプ internet

技術仕様

分類 Payload
質量 575.00 kg
乾燥質量 530.00 kg
総質量 575.00 kg
長さ 0.30 m
直径 4.10 m
スパン 29.00 m
形状 Box + pan
製造者 SPXS
バスタイプ Starlink V2MO
フェーズステータス In Orbit
所有者/国 SPXS/US

大規模コンステレーション

Loading constellations...